STARLINK-4723, 53797

Orbit data source: Space-Track

STARLINK-4723, 53797 is a payload satellite owned by SpaceX/Seattle (US) in LEO that was launched on Sun, 11 Sep 2022 UTC via an FALCON 9 launch vehicle from the Air Force Eastern Test Range (AFETR). Payload-class satellites include a variety of spacecraft equipped with specific instruments for various scientific and technological missions. These include communications satellites like Starlink; space stations such as the ISS; scientific satellites like the Hubble; Earth observation satellites from companies like Planet Labs, Umbra, and HawkEye 360; GPS; miniature CubeSats for education and research; and military/defense satellites.

Loading next visibility...
Identifier
53797, 2022-111AA
Orbit
LEO
Last TLE update
1 day ago
Origin
Manufacturer
SpaceX/Seattle
Mission
Operational Commercial Communications
Bus & Motor
STARLINK, Unknown motor
Mass
305 kg wet, ~290 kg dry
Launch date (UTC)
2022-09-11 (3 years ago)
Launch vehicle
FALCON 9
Launch site
Air Force Eastern Test Range (AFETR)
Object type
Payload
Rocket body
Debris
Shape & HBR
Box + 1 Pan, 8.86 m
Radar Cross Section
13.562 m², Large (>1 m²)

Expand to show TLE details & history

TLE from 1 day ago
0 STARLINK-4723
1 53797U 22111AA  25128.53052586  .00000721  00000-0  63355-4 0  9996
2 53797  53.2169 203.5975 0001245  87.0353 273.0782 15.08839545146826
Epoch: 2025-05-08T12:43Z
Definitive object data (Epoch: 2025-05-08T12:43:57.434Z)
Latitude
0.00002°
Longitude
146.00851°
Altitude
540.596 km
Speed
7.593 km/s
True Right ascension
13h 34m 23s
True Declination
0° 00' 00"
Sunlit
Object was in full shadow at TLE epoch
Visualization TLE readout
Latitude
-12.88992°
Longitude
130.57358°
Altitude
543.441 km
Speed
7.591 km/s
Apparent Right ascension
13h 35m 24s
Apparent Declination
-26° 54' 48"
Sunlit
Object is in full shadow
Visualization observer readout
Local Sidereal Time
03:02:53
Azimuth
61.042° ENE
Elevation
-67.688°
Doppler factor
1
Orbital elements
Apogee altitude
540.851 km
Perigee altitude
539.128 km
Semi-major axis
6,918.127 km
Eccentricity
0.0001245
Inclination
53.2169°
RAAN
203.5975°
Arg. of periapsis
87.0353°
True anomaly
273.06395°
Mean anomaly
273.0782°
Eccentric anomaly
273.07108°
Mean motion
3.7719 °/min
BSTAR
0.000063355
Orbital period
95.44 mins
Loading maneuver chart data...
Loading SW <> Apogee altitude chart data...
Loading historical data...
Loading historical data...
Loading historical data...
Loading historical data...
Loading historical data...
Loading historical data...
Loading historical data...

STARLINK-4723 Visibility forecast

Observer location: undefined°, undefined°

Span
Click to sort rows by Start time (UTC) header in descending order
Start Az.
Max El. time (UTC)
Max El. Az.
Max El.
End time (UTC)
End Az.
5 mins2025-05-10 06:13:01.178Z174.077° S2025-05-10 06:16:01.178Z119.134° SE20.197°2025-05-10 06:18:01.178Z84.85° E
6 mins2025-05-10 07:52:01.178Z254.264° W2025-05-10 07:55:01.178Z344.133° N37.129°2025-05-10 07:58:01.178Z39.258° NE
5 mins2025-05-10 12:54:01.178Z344.263° N2025-05-10 12:56:01.178Z28.975° NE24.753°2025-05-10 12:59:01.178Z83.656° E
6 mins2025-05-10 14:33:01.178Z294.072° NW2025-05-10 14:35:01.178Z251.206° W37.04°2025-05-10 14:39:01.178Z150.017° SSE
|